Date String (YYYY-MM-DD hh:mm:ss) UTC,Instrument flags,Ambient pressure (hPa),Sample flow (lpm),Bypass flow (lpm),Sample temperature (°C),Ambient temperature (°C),ASC tube jacket temperature (°C),LED temperature (°C),Box temperature (°C),Sample RH (%),Span deviation,Mass concentration (μg/m³),Mass concentration (μg/m³),Mass concentration (μg/m³)
DateTimeUTC,F1_M11,P_M11,Q1_M11,Q2_M11,T1_M11,T2_M11,T3_M11,T4_M11,T5_M11,U1_M11,ZSPAN_M11,X2_M11,X0_M11,X1_M11
2023-04-11 05:00:00,,0836.1,4.99,0.00,29.6,27.8,00.0,38.0,31.0,09.6,0000.0,0003.81,0013.48,0001.82
2023-04-11 05:01:00,,0836.1,4.99,0.00,29.6,27.7,00.0,38.0,30.9,09.6,0000.0,0003.83,0013.82,0001.82
2023-04-11 05:02:00,,0836.1,4.99,0.00,29.5,27.7,00.0,38.0,31.0,09.7,0000.0,0003.79,0013.44,0001.82
2023-04-11 05:03:00,,0836.1,5.00,0.00,29.5,27.7,00.0,38.0,31.0,09.6,0000.0,0003.80,0012.48,0001.82
2023-04-11 05:04:00,,0836.0,5.00,0.00,29.5,27.7,00.0,38.0,30.9,09.7,0000.0,0003.80,0013.20,0001.80
2023-04-11 05:05:00,,0836.0,5.01,0.00,29.5,27.7,00.0,38.0,30.9,09.6,0000.0,0003.78,0013.88,0001.79
2023-04-11 05:06:00,,0835.9,5.00,0.00,29.5,27.7,00.0,38.0,31.0,09.6,0000.0,0003.72,0014.17,0001.78
2023-04-11 05:07:00,,0835.9,4.98,0.00,29.5,27.6,00.0,38.0,30.9,09.6,0000.0,0003.69,0014.55,0001.80
2023-04-11 05:08:00,,0835.9,5.01,0.00,29.4,27.6,00.0,37.9,30.9,09.6,0000.0,0003.69,0015.72,0001.82
2023-04-11 05:09:00,,0835.9,5.00,0.00,29.4,27.6,00.0,37.9,30.9,09.7,0000.0,0003.75,0015.85,0001.83
2023-04-11 05:10:00,,0835.9,5.00,0.00,29.4,27.6,00.0,37.9,30.9,09.7,0000.0,0003.74,0015.09,0001.82
2023-04-11 05:11:00,,0835.9,5.01,0.00,29.4,27.6,00.0,37.9,30.9,09.7,0000.0,0003.74,0014.68,0001.84
2023-04-11 05:12:00,,0835.9,5.01,0.00,29.4,27.6,00.0,37.9,30.8,09.7,0000.0,0003.71,0014.86,0001.85
2023-04-11 05:13:00,,0835.9,4.99,0.00,29.4,27.5,00.0,37.9,30.9,09.7,0000.0,0003.70,0015.21,0001.86
2023-04-11 05:14:00,,0835.9,5.00,0.00,29.4,27.5,00.0,37.9,30.9,09.7,0000.0,0003.61,0015.52,0001.85
2023-04-11 05:15:00,,0835.9,4.99,0.00,29.4,27.5,00.0,37.9,30.8,09.7,0000.0,0003.61,0014.05,0001.85
2023-04-11 05:16:00,,0835.9,5.00,0.00,29.4,27.5,00.0,37.8,30.8,09.6,0000.0,0003.66,0013.68,0001.84
2023-04-11 05:17:00,,0835.9,5.00,0.00,29.3,27.5,00.0,37.8,30.8,09.6,0000.0,0003.72,0013.24,0001.84
2023-04-11 05:18:00,,0835.9,5.01,0.00,29.3,27.5,00.0,37.8,30.8,09.7,0000.0,0003.76,0013.51,0001.85
2023-04-11 05:19:00,,0835.9,5.00,0.00,29.3,27.5,00.0,37.8,30.8,09.7,0000.0,0003.74,0012.08,0001.85
2023-04-11 05:20:00,,0835.9,5.01,0.00,29.3,27.5,00.0,37.8,30.8,09.6,0000.0,0003.68,0011.40,0001.84
2023-04-11 05:21:00,,0835.9,5.00,0.00,29.3,27.5,00.0,37.8,30.7,09.6,0000.0,0003.69,0011.53,0001.85
2023-04-11 05:22:00,,0835.8,4.99,0.00,29.3,27.5,00.0,37.8,30.8,09.6,0000.0,0003.68,0012.48,0001.84
2023-04-11 05:23:00,,0835.8,4.99,0.00,29.3,27.5,00.0,37.8,30.8,09.6,0000.0,0003.70,0012.56,0001.83
2023-04-11 05:24:00,,0835.8,5.00,0.00,29.3,27.5,00.0,37.7,30.8,09.6,0000.0,0003.72,0012.47,0001.83
2023-04-11 05:25:00,,0835.8,5.00,0.00,29.3,27.4,00.0,37.7,30.8,09.6,0000.0,0003.71,0011.93,0001.83
2023-04-11 05:26:00,,0835.8,5.01,0.00,29.3,27.4,00.0,37.7,30.7,09.5,0000.0,0003.75,0011.85,0001.84
2023-04-11 05:27:00,,0835.8,5.01,0.00,29.2,27.4,00.0,37.7,30.7,09.4,0000.0,0003.68,0011.51,0001.85
2023-04-11 05:28:00,,0835.8,5.00,0.00,29.2,27.4,00.0,37.7,30.7,09.4,0000.0,0003.66,0011.35,0001.87
2023-04-11 05:29:00,,0835.7,4.99,0.00,29.2,27.3,00.0,37.7,30.7,09.4,0000.0,0003.62,0010.85,0001.88
2023-04-11 05:30:00,,0835.7,5.00,0.00,29.2,27.3,00.0,37.7,30.7,09.4,0000.0,0003.61,0010.73,0001.86
2023-04-11 05:31:00,,0835.6,5.00,0.00,29.2,27.3,00.0,37.7,30.7,09.4,0000.0,0003.62,0011.01,0001.86
2023-04-11 05:32:00,,0835.7,4.98,0.00,29.2,27.3,00.0,37.6,30.6,09.5,0000.0,0003.59,0010.84,0001.86
2023-04-11 05:33:00,,0835.6,4.98,0.00,29.1,27.3,00.0,37.6,30.6,09.6,0000.0,0003.58,0009.87,0001.85
2023-04-11 05:34:00,,0835.6,4.98,0.00,29.1,27.3,00.0,37.6,30.6,09.6,0000.0,0003.51,0009.30,0001.84
2023-04-11 05:35:00,,0835.6,5.00,0.00,29.1,27.3,00.0,37.6,30.6,09.7,0000.0,0003.49,0008.81,0001.82
2023-04-11 05:36:00,,0835.6,5.00,0.00,29.1,27.3,00.0,37.6,30.6,09.7,0000.0,0003.52,0008.86,0001.82
2023-04-11 05:37:00,,0835.6,5.00,0.00,29.1,27.3,00.0,37.6,30.6,09.7,0000.0,0003.53,0008.96,0001.82
2023-04-11 05:38:00,,0835.6,4.99,0.00,29.1,27.2,00.0,37.6,30.5,09.7,0000.0,0003.49,0009.47,0001.81
2023-04-11 05:39:00,,0835.6,5.00,0.00,29.1,27.2,00.0,37.6,30.6,09.7,0000.0,0003.56,0009.80,0001.81
2023-04-11 05:40:00,,0835.6,5.01,0.00,29.1,27.2,00.0,37.5,30.5,09.8,0000.0,0003.58,0009.92,0001.80
2023-04-11 05:41:00,,0835.5,5.00,0.00,29.1,27.2,00.0,37.5,30.5,09.7,0000.0,0003.64,0010.21,0001.80
2023-04-11 05:42:00,,0835.5,5.00,0.00,29.0,27.2,00.0,37.5,30.5,09.7,0000.0,0003.69,0010.30,0001.82
2023-04-11 05:43:00,,0835.5,5.00,0.00,29.0,27.2,00.0,37.5,30.5,09.7,0000.0,0003.74,0011.08,0001.81
2023-04-11 05:44:00,,0835.6,5.00,0.00,29.0,27.2,00.0,37.5,30.5,09.7,0000.0,0003.80,0011.77,0001.81
2023-04-11 05:45:00,,0835.5,5.00,0.00,29.0,27.2,00.0,37.5,30.5,09.7,0000.0,0003.85,0012.28,0001.81
2023-04-11 05:46:00,,0835.5,4.99,0.00,29.0,27.2,00.0,37.5,30.5,09.7,0000.0,0003.85,0012.05,0001.82
2023-04-11 05:47:00,,0835.5,5.00,0.00,29.0,27.2,00.0,37.5,30.5,09.7,0000.0,0003.83,0012.08,0001.81
2023-04-11 05:48:00,,0835.5,5.00,0.00,29.0,27.2,00.0,37.5,30.4,09.7,0000.0,0003.82,0012.54,0001.80
2023-04-11 05:49:00,,0835.5,5.00,0.00,29.0,27.1,00.0,37.4,30.4,09.7,0000.0,0003.86,0012.88,0001.81
2023-04-11 05:50:00,,0835.5,5.00,0.00,29.0,27.1,00.0,37.4,30.4,09.7,0000.0,0003.80,0013.05,0001.79
2023-04-11 05:51:00,,0835.6,5.00,0.00,29.0,27.1,00.0,37.4,30.4,09.7,0000.0,0003.75,0013.24,0001.79
2023-04-11 05:52:00,,0835.6,5.00,0.00,29.0,27.1,00.0,37.4,30.4,09.7,0000.0,0003.68,0013.05,0001.79
2023-04-11 05:53:00,,0835.5,5.00,0.00,29.0,27.1,00.0,37.4,30.4,09.7,0000.0,0003.62,0012.78,0001.79
2023-04-11 05:54:00,,0835.5,5.00,0.00,28.9,27.1,00.0,37.4,30.4,09.7,0000.0,0003.57,0011.77,0001.80
2023-04-11 05:55:00,,0835.5,5.01,0.00,28.9,27.1,00.0,37.4,30.4,09.7,0000.0,0003.50,0011.90,0001.81
2023-04-11 05:56:00,,0835.5,5.01,0.00,28.9,27.1,00.0,37.4,30.4,09.7,0000.0,0003.52,0011.74,0001.81
2023-04-11 05:57:00,,0835.5,4.99,0.00,28.9,27.1,00.0,37.4,30.4,09.8,0000.0,0003.54,0011.88,0001.81
2023-04-11 05:58:00,,0835.5,5.00,0.00,28.9,27.1,00.0,37.4,30.4,09.7,0000.0,0003.55,0011.82,0001.81
2023-04-11 05:59:00,,0835.5,5.01,0.00,28.9,27.1,00.0,37.3,30.3,09.8,0000.0,0003.56,0011.56,0001.80
